Date_and_time,latitude,longitude,wind_speed,RelWindDirFrom,WindDirFrom,air_pressure,air_temperature,relative_humidity,Temp,platform_speed_wrt_ground,air_pressure_at_mean_sea_level,platform_orientation
2019-08-04 23:40,50.6304166666667,-96.9807716666667,10.4,18.4,298,983.66,27.6,29,25.04,0.0,1008.76,38.0
2019-08-04 23:50,50.6304066666667,-96.9807633333333,8.4,13.2,307,983.66,27.5,31,25.07,0.0,1008.77,38.0
2019-08-05 00:00,50.6304133333333,-96.9807683333333,9.0,14.0,303,983.73,27.3,31,24.96,0.0,1008.86,124.8
2019-08-05 00:10,50.6304183333333,-96.98077,8.1,12.6,296,983.79,27.2,32,24.82,0.0,1008.92,124.8
2019-08-05 00:20,50.6304183333333,-96.9807683333333,7.7,12.2,294,983.79,27.0,33,24.86,0.0,1008.93,124.8
2019-08-05 00:30,50.63042,-96.9807683333333,8.7,12.9,298,983.72,26.9,33,24.76,0.0,1008.87,124.8
2019-08-05 00:40,50.6304216666667,-96.9807683333333,8.3,13.8,304,983.77,26.7,33,24.67,0.0,1008.94,124.8
2019-08-05 00:50,50.6304433333333,-96.9807633333333,8.0,13.7,306,983.76,26.4,34,24.69,0.0,1008.94,124.8
2019-08-05 01:00,50.6304716666667,-96.98077,6.2,10.5,305,983.80,26.3,35,24.60,0.0,1009.00,14.5
2019-08-05 01:10,50.63041,-96.9807783333333,6.1,8.9,306,983.78,26.0,35,24.21,0.0,1008.99,14.5
2019-08-05 01:20,50.6304283333333,-96.980765,5.4,9.3,309,983.74,25.7,37,24.14,0.0,1008.98,14.5
2019-08-05 01:30,50.6304666666667,-96.9807816666667,3.7,6.1,301,983.82,25.4,38,24.06,0.0,1009.09,14.5
2019-08-05 01:40,50.6304566666667,-96.98077,3.4,5.9,290,983.88,25.1,39,24.25,0.0,1009.17,14.5
2019-08-05 01:50,50.6304533333333,-96.98077,3.2,5.4,286,983.92,24.7,41,23.99,0.0,1009.23,14.5
2019-08-05 02:00,50.6304516666667,-96.9807683333333,3.0,4.8,276,983.94,24.3,43,23.69,0.0,1009.28,360.0
2019-08-05 02:10,50.63045,-96.9807683333333,3.2,4.8,268,984.04,23.9,43,23.87,0.0,1009.40,360.0
2019-08-05 02:20,50.63045,-96.980765,2.7,4.5,259,984.14,23.5,45,23.82,0.0,1009.53,360.0
2019-08-05 02:30,50.63045,-96.9807633333333,2.9,3.5,241,984.22,23.0,46,23.71,0.0,1009.64,360.0
2019-08-05 02:40,50.6304366666667,-96.9807733333333,3.4,4.1,250,984.32,22.6,47,23.64,0.0,1009.77,360.0
2019-08-05 02:50,50.63044,-96.9807666666667,3.3,4.3,249,984.35,22.3,49,23.61,0.0,1009.82,360.0
2019-08-05 03:00,50.6304416666667,-96.9807666666667,3.5,4.2,245,984.39,21.8,51,23.87,0.0,1009.89,28.9
2019-08-05 03:10,50.6304483333333,-96.9807516666667,3.4,4.4,255,984.38,21.5,51,24.00,0.0,1009.91,28.9
2019-08-05 03:20,50.6304383333333,-96.980765,3.7,4.8,254,984.44,21.3,53,23.87,0.0,1009.99,28.9
2019-08-05 03:30,50.6304416666667,-96.98076,3.3,4.6,261,984.54,21.1,53,23.70,0.0,1010.12,28.9
2019-08-05 03:40,50.6304266666667,-96.9807633333333,3.7,4.8,261,984.66,20.8,55,23.60,0.0,1010.27,28.9
2019-08-05 03:50,50.6304183333333,-96.9807566666667,3.7,4.6,261,984.67,20.4,56,23.57,0.0,1010.32,28.9
2019-08-05 04:00,50.6304283333333,-96.9807583333333,4.1,5.4,258,984.71,20.1,57,23.51,0.0,1010.39,360.0
2019-08-05 04:10,50.6304316666667,-96.9807616666667,4.3,5.3,261,984.74,19.8,57,23.50,0.0,1010.45,360.0
2019-08-05 04:20,50.6304583333333,-96.9807633333333,4.6,6.1,258,984.80,19.6,59,23.49,0.0,1010.55,360.0
2019-08-05 04:30,50.63044,-96.9807633333333,4.4,5.9,259,984.82,19.4,60,23.45,0.0,1010.59,360.0
2019-08-05 04:40,50.6304366666667,-96.980765,4.3,5.4,255,984.78,19.1,60,23.40,0.0,1010.58,360.0
2019-08-05 04:50,50.630435,-96.9807633333333,4.5,5.6,255,984.80,18.9,59,23.41,0.0,1010.62,360.0
2019-08-05 05:00,50.6304333333333,-96.9807683333333,4.5,6.1,250,984.79,18.7,60,23.44,0.0,1010.64,360.0
2019-08-05 05:10,50.63043,-96.980785,4.3,5.6,247,984.73,18.4,61,23.61,0.0,1010.60,360.0
2019-08-05 05:20,50.63043,-96.9807733333333,4.5,6.0,247,984.66,18.1,62,23.67,0.0,1010.55,360.0
2019-08-05 05:30,50.6304316666667,-96.9807666666667,4.9,6.0,244,984.67,17.9,63,23.67,0.0,1010.58,360.0
2019-08-05 05:40,50.6304316666667,-96.980765,4.7,6.3,248,984.64,17.7,64,23.57,0.0,1010.58,360.0
2019-08-05 05:50,50.63044,-96.9807733333333,5.2,7.2,248,984.60,17.6,64,23.63,0.0,1010.56,360.0
2019-08-05 06:00,50.6304383333333,-96.98077,5.6,7.0,243,984.56,17.3,65,23.56,0.0,1010.55,90.0
2019-08-05 06:10,50.6304383333333,-96.98077,5.8,6.8,237,984.57,17.1,67,23.47,0.0,1010.57,90.0
2019-08-05 06:20,50.6304383333333,-96.98077,5.6,7.2,241,984.61,16.8,68,23.41,0.0,1010.63,90.0
2019-08-05 06:30,50.6304433333333,-96.9807633333333,5.3,6.8,242,984.61,16.8,69,23.36,0.0,1010.65,90.0
2019-08-05 06:40,50.6304366666667,-96.9807666666667,5.4,6.5,240,984.62,16.6,70,23.30,0.0,1010.67,90.0
2019-08-05 06:50,50.6304383333333,-96.9807683333333,5.7,7.2,242,984.64,16.5,71,23.24,0.0,1010.71,90.0
2019-08-05 07:00,50.6304366666667,-96.9808016666667,5.3,6.7,243,984.60,16.4,72,23.29,0.0,1010.69,289.7
2019-08-05 07:10,50.63044,-96.9807666666667,5.7,7.4,248,984.49,16.4,71,23.36,0.0,1010.59,289.7
2019-08-05 07:20,50.63044,-96.9807666666667,5.5,6.9,252,984.40,16.4,72,23.33,0.0,1010.51,289.7
2019-08-05 07:30,50.630455,-96.9807783333333,5.5,7.6,249,984.32,16.3,72,23.37,0.0,1010.44,289.7
2019-08-05 07:40,50.6304383333333,-96.9807783333333,5.8,7.6,247,984.20,16.1,73,23.37,0.0,1010.33,289.7
2019-08-05 07:50,50.6304333333333,-96.9807683333333,5.0,6.6,252,984.11,16.0,74,23.32,0.0,1010.25,289.7
2019-08-05 08:00,50.6304316666667,-96.980775,5.4,7.3,249,984.08,15.9,74,23.23,0.0,1010.24,270.0
2019-08-05 08:10,50.6304283333333,-96.9807683333333,5.6,7.7,254,983.85,15.8,75,23.27,0.0,1010.02,270.0
2019-08-05 08:20,50.6304216666667,-96.9807866666667,6.1,7.6,249,983.73,15.6,75,23.33,0.0,1009.91,270.0
2019-08-05 08:30,50.630425,-96.9807716666667,6.9,8.3,240,983.77,15.3,76,23.26,0.0,1009.96,270.0
2019-08-05 08:40,50.63043,-96.9807683333333,6.9,8.8,245,983.72,15.5,74,23.21,0.0,1009.91,270.0
2019-08-05 08:50,50.6304316666667,-96.98077,6.1,7.6,237,983.76,15.5,75,23.16,0.0,1009.95,270.0
2019-08-05 09:00,50.63043,-96.980775,6.2,7.7,239,983.76,15.1,76,23.17,0.0,1009.98,360.0
2019-08-05 09:10,50.6304266666667,-96.9807533333333,6.1,8.1,244,983.75,15.2,74,23.21,0.0,1009.96,360.0
2019-08-05 09:20,50.6304266666667,-96.9807633333333,5.9,7.8,236,983.68,15.3,75,23.19,0.0,1009.89,360.0
2019-08-05 09:30,50.6304283333333,-96.980765,5.5,6.7,245,983.54,15.2,75,23.15,0.0,1009.76,360.0
2019-08-05 09:40,50.6304283333333,-96.9807683333333,6.3,8.1,245,983.50,15.2,74,23.16,0.0,1009.72,360.0
2019-08-05 09:50,50.6304283333333,-96.9807716666667,5.8,9.1,251,983.45,15.3,74,23.14,0.0,1009.68,360.0
2019-08-05 10:00,50.630435,-96.98077,6.2,8.8,253,983.38,15.3,74,23.13,0.0,1009.61,90.0
2019-08-05 10:10,50.6304366666667,-96.9807766666667,5.6,7.2,248,983.31,15.4,75,23.11,0.0,1009.54,90.0
2019-08-05 10:20,50.6304133333333,-96.980775,6.1,8.5,244,983.15,15.3,77,23.08,0.0,1009.40,90.0
2019-08-05 10:30,50.6304416666667,-96.9807883333333,6.0,8.2,242,983.11,15.5,77,23.10,0.0,1009.33,90.0
2019-08-05 10:40,50.6304216666667,-96.9807783333333,6.1,8.3,227,983.05,15.5,79,23.10,0.0,1009.27,90.0
2019-08-05 10:50,50.6304233333333,-96.980775,6.1,8.0,226,983.01,15.2,81,23.05,0.0,1009.26,90.0
2019-08-05 11:00,50.6304233333333,-96.9807766666667,6.1,7.6,231,983.01,15.2,81,23.03,0.0,1009.25,142.0
2019-08-05 11:10,50.630425,-96.9807733333333,6.1,7.8,235,983.07,15.2,81,23.05,0.0,1009.31,142.0
2019-08-05 11:20,50.630425,-96.9807733333333,5.9,8.3,237,983.02,15.1,82,23.06,0.0,1009.27,142.0
2019-08-05 11:30,50.630425,-96.9807683333333,6.4,9.1,239,983.04,15.2,83,23.04,0.0,1009.29,142.0
2019-08-05 11:40,50.6304283333333,-96.98077,6.2,8.4,237,983.02,15.3,84,23.03,0.0,1009.26,142.0
2019-08-05 11:50,50.6304383333333,-96.9807916666667,6.3,8.5,231,983.00,15.4,84,23.02,0.0,1009.23,142.0
2019-08-05 12:00,50.630435,-96.9807683333333,5.9,8.1,237,983.05,15.6,84,23.00,0.0,1009.27,14.5
2019-08-05 12:10,50.6304183333333,-96.9807733333333,6.3,9.3,240,983.10,15.7,84,22.98,0.0,1009.32,14.5
2019-08-05 12:20,50.630425,-96.98077,6.6,9.8,243,983.04,15.8,84,22.96,0.0,1009.24,14.5
2019-08-05 12:30,50.6304266666667,-96.9807666666667,6.7,10.2,246,983.19,16.1,84,22.94,0.0,1009.39,14.5
2019-08-05 12:40,50.6304466666667,-96.9807633333333,5.9,9.3,246,983.26,16.6,83,22.93,0.0,1009.45,14.5
2019-08-05 12:50,50.63044,-96.98076,5.9,8.6,258,983.20,17.3,80,22.91,0.0,1009.35,14.5
2019-08-05 13:00,50.6304433333333,-96.980765,5.3,10.5,266,983.20,18.2,75,22.89,0.0,1009.32,38.0
2019-08-05 13:10,50.630445,-96.980765,5.9,12.5,271,983.23,18.8,72,22.87,0.0,1009.33,38.0
2019-08-05 13:20,50.6304316666667,-96.98076,6.6,10.4,270,983.30,19.1,69,22.83,0.0,1009.38,38.0
2019-08-05 13:30,50.6304366666667,-96.980765,6.8,11.7,283,983.26,19.4,68,22.81,0.0,1009.32,38.0
2019-08-05 13:40,50.630435,-96.98076,5.6,9.9,282,983.36,19.5,67,22.81,0.0,1009.41,38.0
2019-08-05 13:50,50.63045,-96.9807566666667,6.8,11.0,295,983.28,19.8,65,22.79,0.0,1009.31,38.0
2019-08-05 14:00,50.6304483333333,-96.98076,8.5,14.5,298,983.30,20.0,63,22.80,0.0,1009.32,32.1
2019-08-05 14:10,50.6304483333333,-96.98076,9.3,15.4,297,983.35,20.1,62,22.80,0.0,1009.35,32.1
2019-08-05 14:20,50.6304466666667,-96.9807583333333,9.4,13.9,305,983.47,20.3,61,22.80,0.0,1009.45,32.1
2019-08-05 14:30,50.630445,-96.9807583333333,10.5,15.8,311,983.46,20.3,61,22.82,0.0,1009.43,32.1
2019-08-05 14:40,50.630445,-96.9807583333333,8.1,13.3,306,983.49,20.6,60,22.83,0.0,1009.41,32.1
2019-08-05 14:50,50.6304383333333,-96.9807866666667,8.3,14.2,299,983.44,20.9,58,22.82,0.0,1009.30,32.1
2019-08-05 15:00,50.63043,-96.98078,10.7,16.0,313,983.41,21.1,57,22.83,0.0,1009.24,229.4
2019-08-05 15:10,50.63041,-96.98076,9.1,15.1,310,983.54,21.2,57,22.85,0.0,1009.36,229.4
2019-08-05 15:20,50.63045,-96.9807833333333,8.5,15.4,315,983.58,21.4,57,22.88,0.0,1009.37,229.4
2019-08-05 15:30,50.6304266666667,-96.98075,7.4,12.9,301,983.68,21.7,56,22.89,0.0,1009.45,229.4
2019-08-05 15:40,50.6304066666667,-96.9807133333333,9.8,15.7,302,983.56,21.7,55,22.92,0.0,1009.32,229.4
2019-08-05 15:50,50.6304283333333,-96.9807683333333,8.1,13.9,311,983.60,22.0,55,22.97,0.0,1009.34,229.4
2019-08-05 16:00,50.63043,-96.9807666666667,8.9,15.6,305,983.55,22.3,54,23.00,0.0,1009.26,161.1
2019-08-05 16:10,50.63043,-96.980765,8.5,15.8,298,983.53,22.6,52,23.04,0.0,1009.23,161.1
2019-08-05 16:20,50.63043,-96.9807633333333,7.6,14.1,299,983.46,22.9,51,23.06,0.0,1009.15,161.1
2019-08-05 16:30,50.63043,-96.9807633333333,8.7,15.5,316,983.42,23.1,50,23.08,0.0,1009.07,161.1
2019-08-05 16:40,50.63043,-96.980765,9.4,18.1,291,983.43,23.1,50,23.13,0.0,1009.08,161.1
2019-08-05 16:50,50.6304316666667,-96.980765,9.9,16.9,312,983.44,23.1,49,23.17,0.0,1009.08,161.1
2019-08-05 17:00,50.6304266666667,-96.9807516666667,7.2,14.2,294,983.46,23.0,49,23.23,0.0,1009.10,360.0
2019-08-05 17:10,50.6304216666667,-96.9807516666667,8.3,15.0,288,983.50,23.3,47,23.25,0.0,1009.12,360.0
2019-08-05 17:20,50.6304266666667,-96.98076,7.4,13.7,287,983.49,23.5,46,23.26,0.0,1009.09,360.0
2019-08-05 17:30,50.6304266666667,-96.9807633333333,8.4,12.2,289,983.47,24.0,45,23.27,0.0,1009.04,360.0
2019-08-05 17:40,50.6304333333333,-96.9807666666667,8.5,14.1,309,983.42,23.8,45,23.32,0.0,1008.99,360.0
2019-08-05 17:50,50.6304666666667,-96.980815,8.0,16.0,304,983.42,23.8,46,23.36,0.0,1008.97,360.0
2019-08-05 18:00,50.6304516666667,-96.9807983333333,6.8,12.1,306,983.40,23.8,45,23.32,0.0,1008.94,360.0
2019-08-05 18:10,50.63045,-96.9807833333333,8.1,15.7,299,983.29,24.3,42,23.28,0.0,1008.80,360.0
2019-08-05 18:20,50.63045,-96.9807783333333,10.5,16.0,318,983.27,24.3,42,23.32,0.0,1008.77,360.0
2019-08-05 18:30,50.6304416666667,-96.9807666666667,10.3,16.6,305,983.32,24.3,38,23.34,0.0,1008.82,360.0
2019-08-05 18:40,50.63044,-96.9807766666667,9.3,16.0,300,983.33,24.5,37,23.23,0.0,1008.82,360.0
2019-08-05 18:50,50.6304383333333,-96.9807766666667,8.0,13.5,313,983.39,24.7,39,23.33,0.0,1008.88,360.0
2019-08-05 19:00,50.6304383333333,-96.9807766666667,9.7,15.3,317,983.39,24.1,40,23.25,0.0,1008.89,360.0
2019-08-05 19:10,50.630435,-96.9808083333333,7.2,14.1,307,983.43,24.4,37,23.32,0.0,1008.91,360.0
2019-08-05 19:20,50.6304316666667,-96.9807866666667,7.0,20.4,307,983.38,24.7,39,23.40,0.0,1008.82,360.0
2019-08-05 19:30,50.6304383333333,-96.9807816666667,8.6,12.3,343,983.41,24.1,42,23.31,0.0,1008.89,360.0
2019-08-05 19:40,50.6304383333333,-96.98078,5.8,9.6,355,983.50,24.0,44,23.25,0.0,1008.99,360.0
2019-08-05 19:50,50.6304366666667,-96.980775,7.4,12.1,321,983.42,24.3,41,23.36,0.0,1008.89,360.0
2019-08-05 20:00,50.6304366666667,-96.980775,6.6,13.5,321,983.39,24.4,38,23.25,0.0,1008.84,310.6
2019-08-05 20:10,50.6304116666667,-96.9807783333333,9.7,15.7,295,983.23,25.0,35,23.16,0.0,1008.65,310.6
2019-08-05 20:20,50.630415,-96.9807783333333,8.3,14.4,297,983.21,25.1,35,23.29,0.0,1008.62,310.6
2019-08-05 20:30,50.6304133333333,-96.980785,6.9,18.9,337,983.19,25.2,37,23.27,0.0,1008.58,310.6
2019-08-05 20:40,50.6304133333333,-96.98079,7.4,14.9,316,983.20,25.2,35,23.25,0.0,1008.58,310.6
2019-08-05 20:50,50.6304183333333,-96.98078,8.4,17.6,314,983.12,25.5,34,23.21,0.0,1008.52,310.6
2019-08-05 21:00,50.6304183333333,-96.9807816666667,8.0,15.8,315,983.15,25.2,35,23.30,0.0,1008.54,360.0
2019-08-05 21:10,50.6304333333333,-96.980775,6.8,11.7,41,983.20,23.9,53,23.37,0.0,1008.64,360.0
2019-08-05 21:20,50.6304333333333,-96.9807766666667,6.0,10.8,47,983.20,23.5,54,23.32,0.0,1008.68,360.0
2019-08-05 21:30,50.63043,-96.9807766666667,8.9,10.8,67,983.09,23.4,54,23.26,0.0,1008.58,360.0
2019-08-05 21:40,50.6304316666667,-96.9807766666667,8.0,10.2,76,983.03,23.9,53,23.21,0.0,1008.49,360.0
2019-08-05 21:50,50.6304316666667,-96.980775,6.0,8.9,81,983.07,24.1,53,23.28,0.0,1008.51,360.0
2019-08-05 22:00,50.63043,-96.980775,5.0,7.0,90,983.04,24.2,53,23.28,0.0,1008.45,360.0
2019-08-05 22:10,50.6304166666667,-96.98078,3.2,5.6,112,983.01,24.5,49,23.20,0.0,1008.41,360.0
2019-08-05 22:20,50.6304383333333,-96.98076,1.7,11.3,353,982.97,25.0,45,23.14,0.0,1008.34,360.0
2019-08-05 22:30,50.6304333333333,-96.9807616666667,4.5,9.8,34,983.04,25.3,46,23.10,0.0,1008.39,360.0
2019-08-05 22:40,50.6304333333333,-96.9807633333333,4.3,7.8,50,983.07,24.1,53,23.03,0.0,1008.46,360.0
2019-08-05 22:50,50.63043,-96.9807633333333,6.3,8.3,62,982.99,24.0,53,22.99,0.0,1008.40,360.0
2019-08-05 23:00,50.6304283333333,-96.9807616666667,3.9,7.0,88,983.08,24.5,53,22.95,0.0,1008.52,143.4
2019-08-05 23:10,50.6304266666667,-96.9807666666667,5.2,7.2,115,983.04,24.8,53,22.92,0.0,1008.49,143.4
2019-08-05 23:20,50.6304216666667,-96.980765,5.7,7.2,104,982.93,24.8,53,22.99,0.0,1008.38,143.4
2019-08-05 23:30,50.630425,-96.98077,4.1,5.9,86,982.98,25.2,49,23.00,0.0,1008.40,143.4
2019-08-05 23:40,50.630395,-96.9807133333333,5.2,6.7,78,982.93,25.0,54,23.07,0.0,1008.34,143.4
2019-08-05 23:50,50.63041,-96.9807633333333,4.9,6.7,61,982.99,24.2,54,23.11,0.0,1008.44,143.4
